www.pogodaiklimat.ru

Погода и климат >> Архив погоды >> Австралия >> Южная Австралия >> Порт Огаста


ПОГОДА в Порт Огаста

  • Прогноз погоды в Порт Огаста
  • Монитор погоды в Порт Огаста

АРХИВ ПОГОДЫ в Порт Огаста

Время (UTC), дата Ветер
(напр.,м/с)
 
Видим.   Явления Облачность Т
(С)
Тd
(С)
f
(%)
Тe
(С)
Тes
(С)
Комфортность P
(гПа)
Po
(гПа)
Тmin
(С)
Tmax
(С)
R
(мм)
R24
(мм)
S
(см)
16 18.05 ЮЗ 3 н/о н/о +16.0 +11.0 72 +16 +16 1020.2 1018.4
17 18.05 З 3 н/о 10/0
[]
+17.5 +11.3 67 +18 +18 1020.1 1018.3
18 18.05 штиль 0 н/о н/о +17.5 +11.3 67 +18 +18 1020.1 1018.3
19 18.05 СЗ 2 н/о н/о +16.7 +11.2 70 +17 +17 1020.0 1018.2
20 18.05 С 3 н/о 9/0 2000 м
[]
+18.7 +11.8 64 +20 +20 1019.7 1017.9
21 18.05 З 2 н/о н/о +18.8 +11.9 64 +20 +20 1019.8 1018.0
22 18.05 З 4 н/о н/о +19.8 +11.0 57 +21 +21 комфорт 1020.2 1018.4
23 18.05 СЗ 6 н/о 9/0
[]
+21.1 +10.6 51 +23 +23 комфорт 1020.3 1018.5
00 19.05 СЗ 6 н/о н/о +22.5 +10.0 45 +24 +24 комфорт 1020.7 1018.9
01 19.05 С 9 н/о н/о +22.5 +8.2 40 +24 +24 комфорт 1021.1 1019.3
02 19.05 С 7 н/о 10/0
[]
+23.6 +8.5 38 +24 +24 комфорт 1020.8 1019.0 +15.7
03 19.05 С 5 н/о н/о +23.5 +8.4 38 +24 +24 комфорт 1019.9 1018.1
04 19.05 С 4 н/о н/о +24.0 +12.3 48 +26 +26 жарко 1018.9 1017.1
05 19.05 С 6 н/о {туман} 4/0
[]
+25.1 +9.8 38 +26 +26 жарко 1018.5 1016.7 0.2
06 19.05 С 5 н/о н/о +25.1 +10.9 41 +26 +26 жарко 1018.0 1016.2
07 19.05 З 6 н/о н/о +26.2 +12.3 42 +28 +28 жарко 1017.8 1016.0
08 19.05 З 5 н/о 10/0 2000 м
[]
+23.6 +12.3 49 +25 +25 комфорт 1018.2 1016.4
09 19.05 З 5 н/о н/о +22.4 +12.4 53 +25 +25 комфорт 1018.8 1017.0
10 19.05 З 3 н/о н/о +21.5 +11.2 52 +23 +23 комфорт 1019.3 1017.5
11 19.05 ЮВ 2 н/о 10/0 2000 м
[]
+20.4 +12.4 60 +23 +23 комфорт 1020.1 1018.3
12 19.05 ЮЗ 3 н/о н/о +19.3 +12.1 63 +21 +21 комфорт 1020.8 1019.0
13 19.05 СВ 2 н/о н/о +17.1 +14.7 86 +17 +17 1020.5 1018.7
14 19.05 З 1 н/о {туман} 10/10 1500 м
[]
+16.0 +14.5 91 +17 +17 1020.8 1019.0 +26.9
15 19.05 Ю 3 н/о н/о +15.7 +14.9 95 +15 +15 1020.6 1018.8
16 19.05 З 2 н/о н/о +15.0 +14.0 94 +15 +15 1020.7 1018.9
17 19.05 штиль 0 н/о в посл. час дождь {туман} 9/9 1500 м
[]
+15.1 +14.3 95 +15 +15 1020.7 1018.9 4
18 19.05 З 3 н/о н/о +13.0 +11.7 92 +12 +12 1020.9 1019.1
19 19.05 ЮЗ 3 н/о н/о +11.4 +10.0 91 +9 +9 1021.0 1019.2
20 19.05 штиль 0 н/о н/о +10.4 +8.8 90 +10 +10 1021.0 1019.2
21 19.05 З 2 н/о н/о +9.6 +8.2 91 +8 +8 1021.6 1019.8
22 19.05 СЗ 2 н/о н/о +9.4 +8.0 91 +8 +8 1022.3 1020.5
23 19.05 С 2 н/о н/о +12.0 +9.7 86 +11 +11 1022.9 1021.1 4
00 20.05 З 2 н/о н/о +15.6 +10.2 70 +16 +16 1023.4 1021.6
01 20.05 С 3 н/о н/о +18.0 +9.1 56 +18 +18 1023.2 1021.4
02 20.05 С 3 н/о н/о +20.4 +7.4 43 +22 +22 комфорт 1022.6 1020.8 +8.9
03 20.05 С 2 н/о н/о +21.6 +6.7 38 +22 +22 комфорт 1021.7 1019.9
04 20.05 З 3 н/о н/о +21.7 +6.4 37 +22 +22 комфорт 1021.1 1019.3
05 20.05 С 3 н/о н/о +22.7 +6.0 34 +23 +23 комфорт 1020.9 1019.1
06 20.05 С 5 н/о н/о +22.7 +5.2 32 +23 +23 комфорт 1020.6 1018.8
07 20.05 СЗ 3 н/о н/о +22.3 +5.3 33 +23 +23 комфорт 1020.5 1018.7
08 20.05 СВ 3 н/о н/о +18.6 +7.7 49 +19 +19 1020.7 1018.9
09 20.05 С 3 н/о н/о +15.6 +9.3 66 +15 +15 1021.3 1019.5
10 20.05 С 2 н/о н/о +16.3 +7.5 56 +16 +16 1021.7 1019.9
11 20.05 штиль 0 н/о н/о +13.5 +8.4 71 +13 +13 1021.8 1020.0
12 20.05 З 3 н/о н/о +12.0 +8.1 77 +11 +11 1022.3 1020.5
13 20.05 ЮЗ 2 н/о н/о +11.8 +8.3 79 +11 +11 1022.3 1020.5
14 20.05 штиль 0 н/о н/о +11.3 +8.2 81 +11 +11 1022.0 1020.2 +23.2
15 20.05 З 2 н/о н/о +10.3 +7.5 83 +9 +9 1021.6 1019.8
16 20.05 штиль 0 н/о н/о +9.6 +7.5 87 +9 +9 1021.5 1019.7
17 20.05 З 3 н/о н/о +8.7 +6.3 85 +6 +6 1021.7 1019.9
18 20.05 С 1 н/о н/о +7.8 +6.3 90 +7 +7 1021.5 1019.7
19 20.05 З 2 н/о н/о +7.8 +5.6 86 +6 +6 1021.7 1019.9
20 20.05 СЗ 1 н/о 5/0 2000 м
[]
+8.1 +5.9 86 +7 +7 1022.2 1020.4
21 20.05 С 1 н/о н/о +8.2 +6.8 91 +8 +8 1022.6 1020.8
22 20.05 штиль 0 н/о н/о +8.6 +7.2 91 +8 +8 1023.0 1021.2
23 20.05 З 2 н/о 3/0 2000 м
[]
+10.1 +8.7 91 +8 +8 1023.4 1021.6
00 21.05 СЗ 2 н/о н/о +15.3 +9.7 69 +15 +15 1023.6 1021.8
01 21.05 штиль 0 н/о н/о +19.2 +8.2 49 +20 +20 1023.6 1021.8
02 21.05 СЗ 3 н/о н/о +22.1 +4.2 31 +22 +22 комфорт 1023.3 1021.5 +7.6
03 21.05 С 3 н/о н/о +23.7 +4.6 29 +23 +23 комфорт 1022.3 1020.5
04 21.05 С 3 н/о н/о +25.8 +5.9 28 +25 +25 комфорт 1021.2 1019.4
05 21.05 С 3 н/о н/о +26.3 +7.4 30 +26 +26 жарко 1021.0 1019.2
06 21.05 С 3 н/о н/о +26.6 +8.6 32 +27 +27 жарко 1021.1 1019.3
07 21.05 СВ 3 н/о н/о +26.2 +8.7 33 +26 +26 жарко 1021.4 1019.6
08 21.05 С 6 н/о н/о +22.9 +11.6 49 +25 +25 комфорт 1021.6 1019.8
09 21.05 СВ 4 н/о н/о +19.8 +12.6 63 +22 +22 комфорт 1022.3 1020.5
10 21.05 СЗ 4 н/о н/о +18.4 +12.8 70 +19 +19 1023.0 1021.2
11 21.05 З 3 н/о н/о +16.1 +12.1 77 +16 +16 1023.6 1021.8
12 21.05 ЮЗ 2 н/о н/о +16.0 +12.2 78 +16 +16 1023.9 1022.1
13 21.05 ЮЗ 3 н/о н/о +14.6 +11.9 84 +14 +14 1023.9 1022.1
14 21.05 З 3 н/о н/о +13.6 +11.1 85 +13 +13 1024.0 1022.2 +27.1
15 21.05 ЮЗ 3 н/о н/о +13.1 +11.2 88 +12 +12 1024.0 1022.2
16 21.05 СЗ 3 н/о н/о +12.9 +11.3 90 +12 +12 1024.4 1022.6
17 21.05 ЮВ 4 н/о 4/0 2000 м
[]
+13.6 +12.3 92 +12 +12 1024.4 1022.6
18 21.05 ЮВ 2 н/о н/о +12.9 +11.8 93 +12 +12 1024.8 1023.0
19 21.05 Ю 1 н/о н/о +11.2 +10.1 93 +12 +12 1025.0 1023.2
20 21.05 ЮЗ 3 н/о н/о +10.8 +9.9 94 +9 +9 1025.3 1023.5
21 21.05 ЮВ 2 н/о н/о +11.7 +10.8 94 +11 +11 1025.8 1024.0
22 21.05 В 4 н/о н/о +12.8 +12.3 97 +11 +11 1026.2 1024.4
23 21.05 ЮВ 3 н/о {туман} н/о +16.0 +13.1 83 +16 +16 1026.7 1024.9 0.2
00 22.05 ЮВ 4 н/о н/о +18.2 +12.4 69 +18 +18 1026.9 1025.1
01 22.05 ЮВ 4 н/о н/о +20.9 +12.6 59 +24 +24 комфорт 1026.9 1025.1
02 22.05 В 4 н/о н/о +21.6 +13.5 60 +24 +24 комфорт 1026.3 1024.5 +10.8
03 22.05 ЮВ 4 н/о н/о +22.9 +13.4 55 +26 +26 жарко 1025.4 1023.6
04 22.05 ЮВ 4 н/о н/о +24.8 +13.0 48 +27 +27 жарко 1024.7 1022.9
05 22.05 ЮВ 7 н/о н/о +21.9 +13.3 58 +25 +25 комфорт 1024.2 1022.4
06 22.05 ЮВ 7 н/о н/о +21.5 +10.6 50 +23 +23 комфорт 1024.1 1022.3
07 22.05 ЮВ 7 н/о н/о +20.9 +10.1 50 +22 +22 комфорт 1024.1 1022.3
08 22.05 ЮВ 5 н/о н/о +19.8 +10.5 55 +21 +21 комфорт 1024.5 1022.7
09 22.05 В 4 н/о н/о +17.5 +13.2 76 +17 +17 1024.9 1023.1
10 22.05 В 4 н/о н/о +16.3 +14.0 86 +16 +16 1025.4 1023.6
11 22.05 В 5 н/о н/о +15.7 +12.3 80 +14 +14 1025.6 1023.8
12 22.05 ЮВ 4 н/о н/о +15.8 +11.4 75 +15 +15 1025.6 1023.8
13 22.05 Ю 2 н/о н/о +14.0 +10.6 80 +13 +13 1025.5 1023.7
14 22.05 Ю 2 н/о н/о +12.6 +9.6 82 +12 +12 1025.2 1023.4 +25.0
15 22.05 Ю 3 н/о н/о +12.5 +10.0 85 +11 +11 1024.8 1023.0
16 22.05 Ю 3 н/о н/о +11.7 +9.6 87 +10 +10 1024.3 1022.5
17 22.05 З 3 н/о н/о +10.9 +9.3 90 +9 +9 1024.0 1022.2
18 22.05 СЗ 1 н/о н/о +9.7 +8.1 90 +10 +10 1023.9 1022.1
19 22.05 СЗ 2 н/о н/о +9.0 +8.1 94 +7 +7 1024.1 1022.3
20 22.05 З 3 н/о 1/0
[]
+9.2 +8.3 94 +7 +7 1024.4 1022.6
21 22.05 З 2 н/о н/о +9.0 +8.4 96 +7 +7 1024.7 1022.9
22 22.05 СЗ 1 н/о н/о +9.6 +9.0 96 +9 +9 1025.1 1023.3
23 22.05 З 2 н/о 5/0
[]
+13.5 +11.7 89 +13 +13 1025.6 1023.8
00 23.05 СЗ 5 н/о н/о +17.4 +10.8 65 +17 +17 1026.0 1024.2
01 23.05 СЗ 5 н/о н/о +22.6 +9.7 44 +24 +24 комфорт 1025.7 1023.9
02 23.05 С 6 н/о н/о +25.0 +8.9 36 +26 +26 жарко 1024.6 1022.8 +8.6
03 23.05 С 8 н/о н/о +26.4 +8.4 32 +26 +26 жарко 1023.1 1021.3
04 23.05 С 7 н/о н/о +28.0 +7.8 28 +28 +28 жарко 1022.0 1020.2
05 23.05 СЗ 8 н/о н/о +29.1 +7.1 25 +28 +28 жарко 1021.2 1019.4
06 23.05 СЗ 8 н/о н/о +28.9 +6.3 24 +28 +28 жарко 1020.6 1018.8
07 23.05 СЗ 7 н/о н/о +28.2 +6.3 25 +27 +27 жарко 1020.7 1018.9
08 23.05 СЗ 4 н/о н/о +24.2 +6.5 32 +24 +24 комфорт 1020.6 1018.8
09 23.05 СЗ 4 н/о н/о +21.5 +7.0 39 +22 +22 комфорт 1020.8 1019.0
10 23.05 С 2 н/о н/о +19.7 +7.4 45 +21 +21 комфорт 1021.1 1019.3
11 23.05 СЗ 3 н/о н/о +18.9 +8.0 49 +20 +20 1021.4 1019.6
12 23.05 СЗ 3 н/о н/о +18.5 +7.0 47 +19 +19 1021.3 1019.5
13 23.05 СЗ 2 н/о н/о +17.3 +7.4 52 +18 +18 1021.1 1019.3
14 23.05 СЗ 2 н/о 1/0
[]
+16.6 +7.8 56 +17 +17 1020.5 1018.7 +29.7
15 23.05 С 4 н/о н/о +16.5 +7.4 55 +16 +16 1020.1 1018.3
16 23.05 СЗ 3 н/о н/о +15.3 +7.1 58 +15 +15 1020.1 1018.3
17 23.05 СЗ 3 н/о 9/0
[]
+15.5 +7.5 59 +15 +15 1019.7 1017.9
18 23.05 СЗ 5 н/о н/о +16.9 +7.3 53 +16 +16 1019.6 1017.8
19 23.05 СЗ 3 н/о н/о +16.3 +7.0 54 +16 +16 1020.0 1018.2
20 23.05 С 4 н/о 10/0
[]
+16.7 +5.9 49 +16 +16 1019.7 1017.9
21 23.05 СЗ 5 н/о н/о +17.0 +5.6 47 +16 +16 1020.4 1018.6
22 23.05 СЗ 6 н/о н/о +17.5 +5.8 46 +17 +17 1020.2 1018.4
23 23.05 С 5 н/о 10/0
[]
+18.9 +6.4 44 +19 +19 1020.2 1018.4
00 24.05 С 5 н/о н/о +20.3 +6.6 41 +21 +21 комфорт 1020.5 1018.7
01 24.05 С 5 н/о н/о +22.7 +6.5 35 +23 +23 комфорт 1020.4 1018.6
02 24.05 С 7 н/о 10/0
[]
+25.6 +6.8 30 +25 +25 комфорт 1019.6 1017.8 +15.1
03 24.05 С 7 н/о н/о +26.7 +5.6 26 +26 +26 жарко 1018.2 1016.4
04 24.05 СЗ 9 н/о н/о +28.7 +4.9 22 +27 +27 жарко 1017.0 1015.3
05 24.05 СЗ 10 н/о 10/0
[]
+28.4 +4.6 22 +27 +27 жарко 1016.3 1014.6
06 24.05 СЗ 9 н/о н/о +27.4 +4.5 23 +26 +26 жарко 1016.0 1014.3
07 24.05 СЗ 8 н/о н/о +27.4 +4.5 23 +26 +26 жарко 1016.1 1014.4
08 24.05 З 5 н/о 5/0
[]
+24.4 +4.2 27 +24 +24 комфорт 1016.2 1014.5
09 24.05 СЗ 3 н/о н/о +21.0 +4.1 33 +22 +22 комфорт 1016.7 1015.0
10 24.05 ЮВ 6 н/о н/о +19.0 +11.1 60 +19 +19 1017.5 1015.7
11 24.05 ЮВ 7 н/о 3/0
[]
+19.1 +12.1 64 +20 +20 1018.4 1016.6
12 24.05 ЮВ 7 н/о н/о +18.1 +12.3 69 +17 +17 1018.7 1016.9
13 24.05 Ю 6 н/о н/о +17.6 +11.9 69 +17 +17 1019.1 1017.3
14 24.05 ЮВ 4 н/о н/о +16.6 +11.7 73 +16 +16 1019.2 1017.4 +29.2
15 24.05 Ю 4 н/о н/о +15.4 +11.6 78 +14 +14 1018.9 1017.1
16 24.05 ЮЗ 5 н/о н/о +14.3 +11.3 82 +13 +13 1018.9 1017.1
17 24.05 ЮЗ 4 н/о н/о +13.4 +11.5 88 +12 +12 1018.4 1016.6
18 24.05 ЮЗ 3 н/о н/о +12.6 +11.2 91 +11 +11 1018.3 1016.5
19 24.05 ЮЗ 4 н/о н/о +12.3 +11.4 94 +10 +10 1018.4 1016.6
20 24.05 ЮЗ 4 н/о н/о +11.5 +10.4 93 +9 +9 1018.5 1016.7
21 24.05 ЮЗ 3 н/о н/о +10.8 +9.9 94 +9 +9 1018.6 1016.8
22 24.05 ЮЗ 4 н/о н/о +10.2 +9.3 94 +8 +8 1019.2 1017.4
23 24.05 штиль 0 н/о н/о +13.1 +10.6 85 +13 +13 1020.0 1018.2
00 25.05 СВ 3 н/о н/о +16.0 +10.7 71 +16 +16 1020.0 1018.2
01 25.05 С 4 н/о н/о +17.6 +10.9 65 +17 +17 1019.7 1017.9
02 25.05 С 3 н/о 10/10 1000 м
[]
+19.6 +11.4 59 +21 +21 комфорт 1018.9 1017.1 +9.8
03 25.05 З 6 н/о н/о +20.1 +9.1 49 +21 +21 комфорт 1017.9 1016.1
04 25.05 З 6 н/о н/о +20.9 +8.5 45 +22 +22 комфорт 1016.5 1014.8
05 25.05 З 7 н/о 6/6 1500 м
[]
+22.4 +7.4 38 +23 +23 комфорт 1016.0 1014.3
06 25.05 З 6 н/о н/о +21.5 +7.7 41 +22 +22 комфорт 1016.1 1014.4
07 25.05 ЮЗ 10 н/о н/о +17.8 +11.6 67 +17 +17 1016.9 1015.2
08 25.05 ЮЗ 6 н/о 6/6 1500 м
[]
+16.6 +11.7 73 +15 +15 1017.9 1016.1
09 25.05 ЮЗ 2 н/о н/о +16.0 +11.2 73 +16 +16 1019.0 1017.2
10 25.05 ЮЗ 2 н/о н/о +14.8 +11.0 78 +15 +15 1020.1 1018.3
11 25.05 ЮЗ 4 н/о н/о +14.6 +10.6 77 +13 +13 1020.8 1019.0
12 25.05 ЮЗ 3 н/о н/о +12.7 +7.6 71 +11 +11 1021.2 1019.4
13 25.05 ЮЗ 3 н/о н/о +12.7 +7.0 68 +11 +11 1021.0 1019.2
14 25.05 ЮЗ 4 н/о н/о +12.7 +7.4 70 +11 +11 1021.3 1019.5 +22.9
15 25.05 ЮЗ 3 н/о н/о +10.6 +6.7 77 +9 +9 1021.5 1019.7
16 25.05 ЮЗ 4 н/о н/о +10.4 +7.3 81 +8 +8 1021.2 1019.4

 

Местоположение метеостанции Порт Огаста (Южная Австралия, Австралия): широта -32.52 долгота 137.72 высота над уровнем моря 14 м.

В архиве по умолчанию представлена погода в Порт Огаста за последнюю неделю. Архивные данные за месяц целиком и за предыдущие месяцы, начиная с января 2011 года, Вы можете получить, выбрав интересующий диапазон дат из раскрывающегося списка и нажав кнопку "Ввод!".


*Определитесь, кто Вы:
робот инопланетянин человек

Внимание! Время в таблицах - всемирное. Для получения местного времени необходимо прибавить поправку, которая равна 9.5 ч.

Смотрите также архив погоды в соседних городах и на ближайших метеорологических станциях:

Погода в Уиолле (Южная Австралия, Австралия) (64 км)
Погода в Сноутауне (Южная Австралия, Австралия) (148 км)
Погода в Кадине (Южная Австралия, Австралия) (161 км)
Погода в Мунте (Южная Австралия, Австралия) (166 км)
Погода в Клэре (Южная Австралия, Австралия) (166 км)
Погода в Юнте (Южная Австралия, Австралия) (174 км)
Погода на Аэродроме Вумера (Южная Австралия, Австралия) (175 км)
Погода в Кливе аэропорту (Южная Австралия, Австралия) (175 км)
Погода в Уудинне (Южная Австралия, Австралия) (220 км)
Погода в Ли-Крике (Южная Австралия, Австралия) (224 км)

Пояснения к столбцам:

Ветер - указаны скорость ветра в м/с - средняя за 10 мин, порывы в срок и между сроками (в фигурных скобках) и направление, откуда дует ветер: С - северный, СВ - северо-восточный, В - восточный, ЮВ - юго-восточный, Ю - южный, ЮЗ - юго-западный, З - западный, СЗ - северо-западный.
Видимость - горизонтальная дальность видимости в метрах или километрах. При видимости от 1 до 10 км при отсутствии осадков обычно наблюдается дымка, при ухудшении видимости до 1 км и менее - туман. В сухую погоду видимость может ухудшаться дымом, пылью или мглою.
Явления - указаны атмосферные явления, наблюдавшиеся в срок или в последний час перед сроком; фигурными скобками обозначены явления, наблюдавшиеся между сроками (за 1-3 часа до срока); квадратными скобками обозначены град или гололедные отложения с указанием их диаметра в мм.
Облачность - указаны через наклонную черту общая и нижняя облачность в баллах и высота нижней границы облаков в метрах; квадратными скобками обозначены формы облаков: Ci - перистые, Cs - перисто-слоистые, Cc - перисто-кучевые, Ac - высококучевые, As - высокослоистые, Sc - слоисто-кучевые, Ns - слоисто-дождевые, Cu - кучевые, Cb - кучево-дождевые. Подробнее классификацию облаков см. в Атласе облаков (PDF).
T - Температура воздуха - температура, измеренная на высоте 2 м над землей.
Td - Температура точки росы - температура, при понижении до которой содержащийся в воздухе водяной пар достигнет насыщения.
f - Относительная влажность воздуха - влажноcть воздуха, измеренная на высоте 2 м над землей.
Te - Эффективная температура - температура, которую ощущает одетый по сезону человек в тени. Характеристика душности погоды. При расчете учитывается влияние влажности воздуха и скорости ветра на теплоощущения человека.
Tes - Эффективная температура на солнце - температура, которую ощущает человек, с поправкой на солнечный нагрев. Характеристика знойности погоды. Зависит от высоты солнца над горизонтом, облачности и скорости ветра. Ночью, в пасмурную погоду, а также при ветре 12 м/с и более поправка равна нулю.
P - Атмосферное давление - приведенное к уровню моря атмосферное давление.
Po - Атмосферное давление - измеренное на уровне метеостанции атмосферное давление.
Tmin - Минимальная температура - минимум температуры воздуха на высоте 2 м над землей.
Tmax - Максимальная температура - максимум температуры воздуха на высоте 2 м над землей.
R - Количество осадков - Количество выпавших осадков за период времени, мм. При наведении курсора мыши на число - период времени, за который выпало указанное количество осадков.
R24 - Количество осадков - Количество выпавших осадков за 24 часа, мм.
S - Снежный покров - Высота снежного покрова, см. При наведении курсора мыши на число - состояние снежного покрова и степень покрытия местности в баллах.